[TLELIST] Archives

 

[TLELIST] Current TLEs

February 24th 2026 PDT

0 HST 1 20580U 90037B 26055.30445535 .00007577 00000-0 25159-3 0 9992 2 20580 28.4687 131.2938 0001204 340.4847 19.5702 15.29247409771266 0 ISS (ZARYA) 1 25544U 98067A 26055.21810240 .00011823 00000-0 22802-3 0 9998 2 25544 51.6318 138.9491 0008427 128.0072 232.1679 15.48257925554240 0 CXO 1 25867U 99040B 26055.66474549 .00000964 00000-0 00000-0 0 9992 2 25867 54.3476 120.0248 8022305 310.7540 0.3366 0.37806985 16906 ...Continue Reading

[TLELIST] Current TLEs

February 23rd 2026 PDT

0 HST 1 20580U 90037B 26053.93398554 .00008245 00000-0 27458-3 0 9994 2 20580 28.4686 140.6395 0001143 321.3922 38.6592 15.29225828771057 0 ISS (ZARYA) 1 25544U 98067A 26054.24990436 .00014749 00000-0 28254-3 0 9993 2 25544 51.6318 143.7335 0008466 124.8398 235.3387 15.48232437554094 0 CXO 1 25867U 99040B 26055.66474549 .00000964 00000-0 00000-0 0 9992 2 25867 54.3476 120.0248 8022305 310.7540 0.3366 0.37806985 16906 ...Continue Reading

[TLELIST] Current TLEs

February 22nd 2026 PDT

0 HST 1 20580U 90037B 26052.56349540 .00007071 00000-0 23461-3 0 9999 2 20580 28.4686 149.9853 0001090 298.8097 61.2389 15.29203976770842 0 ISS (ZARYA) 1 25544U 98067A 26052.76529868 .00010666 00000-0 20704-3 0 9991 2 25544 51.6320 151.0701 0008512 119.8639 240.3195 15.48189327553866 0 CXO 1 25867U 99040B 26055.66474549 .00000964 00000-0 00000+0 0 9991 2 25867 54.3476 120.0248 8022305 310.7540 0.3366 0.37806985 16906 ...Continue Reading

[TLELIST] Current TLEs

February 21st 2026 PDT

0 HST 1 20580U 90037B 26051.51930021 .00006899 00000-0 22882-3 0 9996 2 20580 28.4685 157.1051 0001109 279.2471 80.7999 15.29189195770683 0 ISS (ZARYA) 1 25544U 98067A 26052.24890538 .00011241 00000-0 21782-3 0 9996 2 25544 51.6322 153.6219 0008523 117.8535 242.3318 15.48178501553787 0 CXO 1 25867U 99040B 26053.02159877 .00001012 00000-0 00000-0 0 9999 2 25867 54.2829 120.1456 8026519 310.7149 0.6190 0.37809023 16897 ...Continue Reading

[TLELIST] Current TLEs

February 20th 2026 PDT

0 HST 1 20580U 90037B 26050.67088489 .00006837 00000-0 22680-3 0 9992 2 20580 28.4684 162.8909 0001061 272.1045 87.9429 15.29177707770552 0 ISS (ZARYA) 1 25544U 98067A 26051.21610692 .00009352 00000-0 18284-3 0 9996 2 25544 51.6324 158.7245 0008575 115.0388 245.1491 15.48153499553622 0 CXO 1 25867U 99040B 26053.02159877 .00001012 00000-0 00000-0 0 9999 2 25867 54.2829 120.1456 8026519 310.7149 0.6190 0.37809023 16897 ...Continue Reading

[TLELIST] Current TLEs

February 19th 2026 PDT

0 HST 1 20580U 90037B 26049.56140830 .00006839 00000-0 22697-3 0 9997 2 20580 28.4682 170.4553 0001160 251.3948 108.6521 15.29162466770382 0 ISS (ZARYA) 1 25544U 98067A 26049.79608032 .00009878 00000-0 18896-3 0 9993 2 25544 51.6323 165.7431 0010935 112.1599 248.0551 15.48691264553403 0 CXO 1 25867U 99040B 26047.73279316 .00001079 00000-0 00000-0 0 9994 2 25867 54.1474 120.3855 8029286 310.6948 0.6338 0.37796722 16869 ...Continue Reading

[TLELIST] Current TLEs

February 18th 2026 PDT

0 HST 1 20580U 90037B 26048.64771443 .00006944 00000-0 23067-3 0 9994 2 20580 28.4680 176.6860 0001126 244.7281 115.3198 15.29149182770247 0 ISS (ZARYA) 1 25544U 98067A 26049.21532624 .00009407 00000-0 18044-3 0 9996 2 25544 51.6322 168.6154 0010954 110.1068 250.1100 15.48678459553311 0 CXO 1 25867U 99040B 26047.73279316 .00001079 00000-0 00000-0 0 9994 2 25867 54.1474 120.3855 8029286 310.6948 0.6338 0.37796722 16869 ...Continue Reading

[TLELIST] Current TLEs

February 18th 2026 PDT

0 HST 1 20580U 90037B 26048.64771443 .00006944 00000-0 23067-3 0 9994 2 20580 28.4680 176.6860 0001126 244.7281 115.3198 15.29149182770247 0 ISS (ZARYA) 1 25544U 98067A 26049.21532624 .00009407 00000-0 18044-3 0 9996 2 25544 51.6322 168.6154 0010954 110.1068 250.1100 15.48678459553311 0 CXO 1 25867U 99040B 26047.73279316 .00001079 00000-0 00000-0 0 9994 2 25867 54.1474 120.3855 8029286 310.6948 0.6338 0.37796722 16869 ...Continue Reading

[TLELIST] Current TLEs

February 17th 2026 PDT

0 HST 1 20580U 90037B 26047.73401231 .00008194 00000-0 27362-3 0 9999 2 20580 28.4676 182.9159 0001169 231.7634 128.2856 15.29137032770108 0 ISS (ZARYA) 1 25544U 98067A 26048.18286298 .00009660 00000-0 18518-3 0 9991 2 25544 51.6319 173.7204 0011018 107.0393 253.1803 15.48657976553154 0 CXO 1 25867U 99040B 26047.73279316 .00001079 00000-0 00000-0 0 9994 2 25867 54.1474 120.3855 8029286 310.6948 0.6338 0.37796722 16869 ...Continue Reading

[TLELIST] Current TLEs

February 16th 2026 PDT

0 HST 1 20580U 90037B 26046.42870875 .00007835 00000-0 26144-3 0 9996 2 20580 28.4670 191.8156 0001372 214.5807 145.4700 15.29117043769900 0 ISS (ZARYA) 1 25544U 98067A 26047.21491617 .00010277 00000-0 19660-3 0 9992 2 25544 51.6319 178.5071 0011018 103.7643 256.4573 15.48638586553000 0 CXO 1 25867U 99040B 26047.73279316 .00001079 00000-0 00000-0 0 9994 2 25867 54.1474 120.3855 8029286 310.6948 0.6338 0.37796722 16869 ...Continue Reading
  • This mailing list is a public mailing list - anyone may join or leave, at any time.
  • This mailing list is announce-only.

International Space Station (ISS) / Hubble Space Telescope (HST) / Chandra X-Ray Observatory Orbital Data via EMAIL

Privacy Policy:

Private list